📊 Raw Sensor Data
Showing records 42851 to 42875 of 85,006 total
| ID | Distance (ft) | Battery V | Battery A | Int Temp (°F) | Int Humid (%) | Ext Temp (°F) | Solar V | RSSI | SNR | Time Stamp |
|---|---|---|---|---|---|---|---|---|---|---|
| 42168 | 15.4 | 3.98 | 5 | 89 | 43 | 87 | 5.10 | -72 | 8 | 05/31/2025 10:45 AM |
| 42167 | 15.5 | 3.98 | 5 | 87 | 43 | 83 | 5.10 | -73 | 7 | 05/31/2025 10:15 AM |
| 42166 | 15.5 | 3.98 | 5 | 86 | 43 | 91 | 5.10 | -73 | 7 | 05/31/2025 10:00 AM |
| 42165 | 15.5 | 4.12 | 5 | 85 | 43 | 84 | 5.10 | -73 | 7 | 05/31/2025 09:45 AM |
| 42164 | 15.5 | 3.98 | 0 | 84 | 43 | 90 | 5.10 | -74 | 8 | 05/31/2025 09:30 AM |
| 42163 | 15.5 | 3.98 | 0 | 82 | 44 | 85 | 5.10 | -73 | 8 | 05/31/2025 09:15 AM |
| 42162 | 15.5 | 3.98 | 0 | 81 | 44 | 86 | 5.10 | -72 | 7 | 05/31/2025 09:00 AM |
| 42161 | 15.5 | 4.09 | 0 | 80 | 44 | 84 | 5.10 | -72 | 8 | 05/31/2025 08:45 AM |
| 42160 | 15.5 | 3.98 | 0 | 79 | 44 | 85 | 5.10 | -72 | 8 | 05/31/2025 08:30 AM |
| 42159 | 15.5 | 3.98 | 5 | 78 | 43 | 85 | 5.10 | -74 | 8 | 05/31/2025 08:15 AM |
| 42158 | 15.5 | 3.98 | 0 | 77 | 43 | 84 | 5.10 | -72 | 8 | 05/31/2025 08:00 AM |
| 42157 | 15.4 | 4.09 | 66 | 75 | 42 | 84 | 4.50 | -72 | 8 | 05/31/2025 07:45 AM |
| 42156 | 15.4 | 4.03 | 26 | 73 | 42 | 82 | 4.50 | -73 | 7 | 05/31/2025 07:30 AM |
| 42155 | 15.4 | 3.98 | 21 | 71 | 41 | 79 | 4.50 | -73 | 8 | 05/31/2025 07:15 AM |
| 42154 | 15.4 | 3.99 | -5 | 68 | 41 | 79 | 4.50 | -73 | 8 | 05/31/2025 07:00 AM |
| 42153 | 15.3 | 3.98 | 5 | 65 | 42 | 75 | 4.50 | -72 | 7 | 05/31/2025 06:45 AM |
| 42152 | 15.3 | 3.92 | 0 | 63 | 42 | 71 | 4.50 | -72 | 8 | 05/31/2025 06:30 AM |
| 42151 | 15.2 | 3.91 | 0 | 60 | 43 | 66 | 4.50 | -71 | 8 | 05/31/2025 06:15 AM |
| 42150 | 15.2 | 3.90 | -8 | 59 | 43 | 62 | 4.50 | -72 | 8 | 05/31/2025 06:00 AM |
| 42149 | 15.2 | 3.90 | -10 | 59 | 43 | 60 | 3.20 | -71 | 8 | 05/31/2025 05:45 AM |
| 42148 | 15.2 | 3.96 | -5 | 60 | 43 | 61 | 0.50 | -71 | 7 | 05/31/2025 05:30 AM |
| 42147 | 15.2 | 3.91 | -5 | 60 | 44 | 60 | 0.00 | -71 | 8 | 05/31/2025 05:15 AM |
| 42146 | 15.2 | 3.91 | -5 | 60 | 44 | 61 | 0.00 | -72 | 7 | 05/31/2025 05:00 AM |
| 42145 | 15.2 | 3.96 | -5 | 60 | 44 | 61 | 0.00 | -72 | 8 | 05/31/2025 04:45 AM |
| 42144 | 15.2 | 3.91 | -5 | 61 | 44 | 62 | 0.00 | -71 | 8 | 05/31/2025 04:30 AM |